Ely, MN

9:07 PM CDT on June 25, 2017 (GMT -0500)
Ely Municipal

Weather History for KELO - April, 2013

Change the Weather History Date:

Friday, April 19, 2013

  Actual Average Record
Temperature  
Mean Temperature 18 °F -  
Max Temperature 28 °F 49 °F 69 °F (2005)
Min Temperature 8 °F 26 °F 8 °F (2013)
Degree Days  
Heating Degree Days 47    
Moisture  
Dew Point 17 °F    
Average Humidity 78    
Maximum Humidity 100    
Minimum Humidity 47    
Precipitation  
Precipitation 0.09 in - - ()
Sea Level Pressure  
Sea Level Pressure 29.62 in    
Wind  
Wind Speed 11 mph (NNW)    
Max Wind Speed 20 mph    
Max Gust Speed 39 mph    
Visibility 7 miles    
Events Snow    
Averages and records for this station are not official NWS values.
T = Trace of Precipitation, MM = Missing Value Source: NWS Daily Summary

Daily Weather History Graph

Daily Weather History Graph

Search for Another Location

Airport or City:

Trip Planner

Search our weather history database for the weather conditions in past years. The results will help you decide how hot, cold, wet, or windy it might be!

Date:

Astronomy

Apr. 19, 2013 Rise Set
Actual Time 6:10 AM CDT 8:03 PM CDT
Civil Twilight 5:37 AM CDT 8:36 PM CDT
Nautical Twilight 4:56 AM CDT 9:17 PM CDT
Astronomical Twilight 4:12 AM CDT 10:02 PM CDT
Moon 1:21 PM CDT (4/19) 2:53 AM CDT (4/19)
Length of Visible Light 14h 59m
Length of Day
13h 53m
First Quarter, 62% of the Moon is Illuminated
Apr 19
First Quarter
Apr 25
Full
May 2
Last Quarter
May 9
New
May 17
First Quarter

Hourly Weather History & Observations

Time (CDT) Temp. Windchill Dew Point Humidity Pressure Visibility Wind Dir Wind Speed Gust Speed Precip Events Conditions
12:13 AM 28.4 °F 18.0 °F 26.6 °F 93% 29.50 in - NNE 12.7 mph 23.0 mph N/A   Unknown
12:33 AM 28.4 °F 19.1 °F 26.6 °F 93% 29.49 in - North 10.4 mph 23.0 mph 0.01 in   Unknown
12:53 AM 26.6 °F 15.2 °F 24.8 °F 93% 29.49 in - North 13.8 mph 25.3 mph 0.01 in   Unknown
1:13 AM 26.6 °F 16.8 °F 24.8 °F 93% 29.49 in - North 10.4 mph 20.7 mph N/A   Unknown
1:32 AM 26.6 °F 16.2 °F 24.8 °F 93% 29.50 in - North 11.5 mph 21.9 mph 0.01 in   Unknown
1:53 AM 26.6 °F 17.5 °F 24.8 °F 93% 29.50 in - North 9.2 mph 20.7 mph 0.02 in   Unknown
2:13 AM 26.6 °F 20.0 °F 24.8 °F 93% 29.50 in - North 5.8 mph - N/A   Unknown
2:33 AM 26.6 °F 17.5 °F 24.8 °F 93% 29.50 in - North 9.2 mph 20.7 mph 0.01 in   Unknown
2:53 AM 26.6 °F 16.8 °F 24.8 °F 93% 29.50 in - North 10.4 mph 18.4 mph 0.01 in   Unknown
3:13 AM 24.8 °F 15.3 °F 24.8 °F 100% 29.50 in - North 9.2 mph 23.0 mph N/A   Unknown
3:33 AM 24.8 °F 14.6 °F 24.8 °F 100% 29.50 in - North 10.4 mph 17.3 mph 0.01 in   Unknown
3:53 AM 24.8 °F 14.0 °F 23.0 °F 93% 29.50 in - North 11.5 mph 21.9 mph 0.01 in   Unknown
4:13 AM 24.8 °F 14.6 °F 21.2 °F 86% 29.50 in - North 10.4 mph 23.0 mph 0.01 in   Unknown
4:33 AM 24.8 °F 15.3 °F 23.0 °F 93% 29.49 in - North 9.2 mph 17.3 mph 0.02 in   Unknown
4:53 AM 24.8 °F 14.0 °F 21.2 °F 86% 29.49 in - North 11.5 mph 26.5 mph 0.03 in   Unknown
5:13 AM 24.8 °F 16.1 °F 21.2 °F 86% 29.49 in - North 8.1 mph 18.4 mph N/A   Unknown
5:33 AM 23.0 °F 11.7 °F 21.2 °F 93% 29.49 in - North 11.5 mph 27.6 mph N/A   Unknown
5:53 AM 23.0 °F 12.4 °F 21.2 °F 93% 29.49 in - North 10.4 mph 21.9 mph N/A   Unknown
6:13 AM 23.0 °F 11.1 °F 21.2 °F 93% 29.49 in - North 12.7 mph 24.2 mph N/A   Unknown
6:33 AM 21.2 °F 8.3 °F 19.4 °F 93% 29.49 in - North 13.8 mph 24.2 mph N/A   Unknown
6:52 AM 21.2 °F 7.3 °F 19.4 °F 93% 29.49 in - NNW 16.1 mph 29.9 mph N/A   Unknown
7:13 AM 21.2 °F 8.9 °F 19.4 °F 93% 29.50 in - NNW 12.7 mph 26.5 mph 0.01 in   Unknown
7:33 AM 21.2 °F 10.1 °F 19.4 °F 93% 29.50 in - North 10.4 mph 26.5 mph 0.01 in   Unknown
7:52 AM 21.2 °F 6.4 °F 19.4 °F 93% 29.50 in - North 18.4 mph 29.9 mph 0.01 in   Unknown
8:13 AM 21.2 °F 10.9 °F 19.4 °F 93% 29.50 in - NNW 9.2 mph 24.2 mph N/A   Unknown
8:33 AM 23.0 °F 8.3 °F 19.4 °F 86% 29.49 in - NNW 19.6 mph 32.2 mph N/A   Unknown
8:52 AM 23.0 °F 9.6 °F 19.4 °F 86% 29.49 in - North 16.1 mph 29.9 mph N/A   Unknown
9:13 AM 23.0 °F 10.6 °F 19.4 °F 86% 29.50 in - North 13.8 mph 21.9 mph N/A   Unknown
9:33 AM 23.0 °F 10.6 °F 19.4 °F 86% 29.50 in - North 13.8 mph 39.1 mph N/A   Unknown
9:53 AM 23.0 °F 11.1 °F 19.4 °F 86% 29.51 in - North 12.7 mph 34.5 mph N/A   Unknown
10:13 AM 24.8 °F 13.4 °F 19.4 °F 80% 29.51 in - North 12.7 mph 23.0 mph N/A   Unknown
10:32 AM 24.8 °F 11.5 °F 19.4 °F 80% 29.51 in 2.5 mi North 17.3 mph 29.9 mph N/A Snow Light Snow
10:53 AM 24.8 °F 13.4 °F 19.4 °F 80% 29.53 in 1.5 mi North 12.7 mph 34.5 mph N/A Snow Light Snow
11:13 AM 24.8 °F 13.4 °F 19.4 °F 80% 29.54 in 1.0 mi North 12.7 mph 29.9 mph N/A Snow Light Snow
11:33 AM 24.8 °F 13.4 °F 19.4 °F 80% 29.55 in 1.0 mi North 12.7 mph 28.8 mph N/A Snow Light Snow
11:51 AM 24.8 °F 14.6 °F 19.4 °F 80% 29.55 in 1.8 mi NNW 10.4 mph 21.9 mph N/A Snow Light Snow
12:13 PM 24.8 °F 14.0 °F 19.4 °F 80% 29.56 in 1.0 mi NNW 11.5 mph 27.6 mph N/A Snow Light Snow
12:32 PM 24.8 °F 14.6 °F 17.6 °F 74% 29.57 in 1.8 mi North 10.4 mph 29.9 mph N/A Snow Light Snow
12:53 PM 24.8 °F 14.0 °F 19.4 °F 80% 29.58 in 1.5 mi NNW 11.5 mph 29.9 mph N/A Snow Light Snow
1:12 PM 24.8 °F 12.4 °F 17.6 °F 74% 29.59 in 2.0 mi North 15.0 mph 28.8 mph N/A Snow Light Snow
1:33 PM 26.6 °F 16.2 °F 19.4 °F 74% 29.60 in 10.0 mi NNW 11.5 mph 27.6 mph N/A Snow Light Snow
1:53 PM 24.8 °F 12.4 °F 17.6 °F 74% 29.61 in 2.5 mi NNW 15.0 mph 33.4 mph N/A Snow Light Snow
2:12 PM 26.6 °F 16.8 °F 19.4 °F 74% 29.63 in 2.5 mi NNW 10.4 mph 21.9 mph N/A Snow Light Snow
2:33 PM 26.6 °F 14.3 °F 17.6 °F 69% 29.64 in 4.0 mi NNW 16.1 mph 26.5 mph N/A Snow Light Snow
2:53 PM 26.6 °F 16.8 °F 19.4 °F 74% 29.65 in 1.2 mi NNW 10.4 mph 26.5 mph N/A Snow Light Snow
3:12 PM 26.6 °F 15.7 °F 19.4 °F 74% 29.66 in 4.0 mi NNW 12.7 mph 25.3 mph N/A Snow Light Snow
3:33 PM 26.6 °F 16.8 °F 19.4 °F 74% 29.67 in 5.0 mi NNW 10.4 mph 20.7 mph N/A   Haze
3:53 PM 26.6 °F 13.4 °F 17.6 °F 69% 29.68 in 2.5 mi NNW 18.4 mph 28.8 mph N/A Snow Light Snow
4:12 PM 26.6 °F 14.3 °F 17.6 °F 69% 29.70 in 3.0 mi North 16.1 mph 32.2 mph N/A Snow Light Snow
4:33 PM 26.6 °F 15.2 °F 15.8 °F 64% 29.71 in 7.0 mi NNW 13.8 mph 26.5 mph N/A   Unknown
4:53 PM 26.6 °F 15.2 °F 14.0 °F 59% 29.73 in 10.0 mi NNW 13.8 mph 23.0 mph N/A   Unknown
5:12 PM 26.6 °F 13.8 °F 12.2 °F 55% 29.74 in 10.0 mi NNW 17.3 mph 29.9 mph N/A   Unknown
5:33 PM 26.6 °F 15.7 °F 12.2 °F 55% 29.75 in 10.0 mi NNW 12.7 mph 24.2 mph N/A   Unknown
5:53 PM 26.6 °F 13.8 °F 10.4 °F 51% 29.76 in 10.0 mi NNW 17.3 mph 24.2 mph N/A   Unknown
6:12 PM 26.6 °F 14.7 °F 8.6 °F 47% 29.76 in 10.0 mi North 15.0 mph 21.9 mph N/A   Unknown
6:33 PM 26.6 °F 18.2 °F 10.4 °F 51% 29.78 in 10.0 mi NNW 8.1 mph 16.1 mph N/A   Unknown
6:53 PM 26.6 °F 20.0 °F 10.4 °F 51% 29.78 in 10.0 mi NNW 5.8 mph - N/A   Unknown
7:12 PM 26.6 °F 19.1 °F 10.4 °F 51% 29.79 in 10.0 mi NNW 6.9 mph - N/A   Unknown
7:33 PM 26.6 °F 18.2 °F 8.6 °F 47% 29.80 in 10.0 mi NNW 8.1 mph 19.6 mph N/A   Unknown
7:53 PM 24.8 °F 19.1 °F 10.4 °F 54% 29.81 in 10.0 mi North 4.6 mph - N/A   Unknown
8:12 PM 24.8 °F 17.9 °F 8.6 °F 50% 29.82 in 10.0 mi NNW 5.8 mph - N/A   Unknown
8:33 PM 23.0 °F 15.8 °F 8.6 °F 54% 29.83 in 10.0 mi NNW 5.8 mph - N/A   Unknown
8:52 PM 21.2 °F 14.9 °F 8.6 °F 58% 29.83 in 10.0 mi NNW 4.6 mph - N/A   Unknown
9:13 PM 21.2 °F - 8.6 °F 58% 29.84 in 10.0 mi Calm Calm - N/A   Unknown
9:33 PM 19.4 °F 14.3 °F 8.6 °F 63% 29.85 in 10.0 mi NW 3.5 mph - N/A   Unknown
9:52 PM 17.6 °F - 8.6 °F 68% 29.86 in 10.0 mi Calm Calm - N/A   Unknown
10:13 PM 15.8 °F 10.2 °F 8.6 °F 73% 29.87 in 10.0 mi NW 3.5 mph - N/A   Unknown
10:33 PM 14.0 °F - 6.8 °F 73% 29.87 in 10.0 mi Calm Calm - N/A   Unknown
10:52 PM 15.8 °F - 6.8 °F 68% 29.88 in 10.0 mi Calm Calm - N/A   Unknown
11:13 PM 8.6 °F - 6.8 °F 92% 29.89 in 10.0 mi Calm Calm - N/A   Unknown
11:33 PM 8.6 °F - 6.8 °F 92% 29.89 in 10.0 mi Calm Calm - N/A   Unknown
11:39 PM 8.6 °F - 6.8 °F 92% 29.90 in 10.0 mi Calm Calm - N/A   Unknown